Weather History for KOTH - March, 2014

Change the Weather History Date:

Wednesday, March 26, 2014

  Actual Average Record
Temperature  
Mean Temperature 51 °F 48 °F  
Max Temperature 55 °F 54 °F 83 °F (1923)
Min Temperature 46 °F 42 °F 29 °F (1922)
Degree Days  
Heating Degree Days 14 17  
Month to date heating degree days 365 451  
Since 1 July heating degree days 3162 3625  
Cooling Degree Days 0 0  
Month to date cooling degree days 0 0  
Year to date cooling degree days 0 0  
Moisture  
Dew Point 48 °F    
Average Humidity 93    
Maximum Humidity 100    
Minimum Humidity 83    
Precipitation  
Precipitation 0.68 in 0.23 in 1.52 in (1962)
Month to date precipitation 3.43 6.68  
Year to date precipitation 14.15 24.46  
Sea Level Pressure  
Sea Level Pressure 29.66 in    
Wind  
Wind Speed 11 mph (SSW)    
Max Wind Speed 21 mph    
Max Gust Speed 27 mph    
Visibility 10 miles    
Events      
T = Trace of Precipitation, MM = Missing Value Source: NWS Daily Summary

Daily Weather History Graph

Daily Weather History Graph

Search for Another Location

Airport or City:

Trip Planner

Search our weather history database for the weather conditions in past years. The results will help you decide how hot, cold, wet, or windy it might be!

Date:

Astronomy

Mar. 26, 2014 Rise Set
Actual Time 7:09 AM PDT 7:36 PM PDT
Civil Twilight 6:40 AM PDT 8:05 PM PDT
Nautical Twilight 6:06 AM PDT 8:39 PM PDT
Astronomical Twilight 5:32 AM PDT 9:14 PM PDT
Moon 4:29 AM PDT (3/26) 3:15 PM PDT (3/26)
Length of Visible Light 13h 24m
Length of Day
12h 27m
Waning Crescent, 21% of the Moon is Illuminated
Mar 26
Waning Crescent
Mar 30
New
Apr 7
First Quarter
Apr 15
Full
Apr 22
Last Quarter

Hourly Weather History & Observations

Time (PDT) Temp. Windchill Dew Point Humidity Pressure Visibility Wind Dir Wind Speed Gust Speed Precip Events Conditions
12:15 AM 48.2 °F - 48.2 °F 100% 29.69 in 10.0 mi SSE 5.8 mph - N/A   Overcast
12:35 AM 48.2 °F - 48.2 °F 100% 29.68 in 10.0 mi SSE 5.8 mph - N/A   Overcast
12:55 AM 48.2 °F - 48.2 °F 100% 29.68 in 10.0 mi SSE 6.9 mph - N/A   Overcast
1:15 AM 48.2 °F - 48.2 °F 100% 29.67 in 8.0 mi SSE 8.1 mph - 0.01 in   Overcast
1:35 AM 48.2 °F - 46.4 °F 93% 29.67 in 10.0 mi SSE 6.9 mph - 0.03 in   Overcast
1:55 AM 48.2 °F - 46.4 °F 93% 29.66 in 9.0 mi SSE 6.9 mph - 0.03 in   Overcast
2:15 AM 48.2 °F - 46.4 °F 93% 29.66 in 10.0 mi SSE 6.9 mph - 0.01 in   Overcast
2:35 AM 48.2 °F - 48.2 °F 100% 29.66 in 8.0 mi South 11.5 mph 18.4 mph 0.02 in   Overcast
2:55 AM 48.2 °F - 46.4 °F 93% 29.66 in 10.0 mi South 8.1 mph - 0.06 in   Overcast
3:15 AM 48.2 °F - 48.2 °F 100% 29.65 in 10.0 mi SSE 8.1 mph - N/A   Overcast
3:35 AM 48.2 °F - 48.2 °F 100% 29.64 in 10.0 mi SSE 4.6 mph - N/A   Overcast
3:55 AM 48.2 °F - 48.2 °F 100% 29.64 in 10.0 mi SSE 5.8 mph - 0.01 in   Overcast
4:15 AM 48.2 °F - 48.2 °F 100% 29.64 in 10.0 mi SSE 6.9 mph - N/A   Overcast
4:35 AM 48.2 °F - 46.4 °F 93% 29.64 in 10.0 mi SSE 8.1 mph - N/A   Overcast
4:55 AM 48.2 °F - 48.2 °F 100% 29.64 in 10.0 mi SSE 6.9 mph - N/A   Overcast
5:15 AM 48.2 °F - 46.4 °F 93% 29.63 in 10.0 mi SSE 8.1 mph - N/A   Overcast
5:35 AM 46.4 °F 43.5 °F 46.4 °F 100% 29.63 in 10.0 mi SSE 5.8 mph - N/A   Overcast
5:55 AM 46.4 °F 43.5 °F 46.4 °F 100% 29.63 in 10.0 mi SSE 5.8 mph - N/A   Mostly Cloudy
6:15 AM 46.4 °F 42.9 °F 46.4 °F 100% 29.63 in 10.0 mi SSE 6.9 mph - N/A   Mostly Cloudy
6:35 AM 48.2 °F - 48.2 °F 100% 29.63 in 10.0 mi SSE 8.1 mph - N/A   Overcast
6:55 AM 48.2 °F - 48.2 °F 100% 29.62 in 10.0 mi South 4.6 mph - N/A   Overcast
7:15 AM 48.2 °F - 48.2 °F 100% 29.62 in 10.0 mi SSE 5.8 mph - N/A   Mostly Cloudy
7:35 AM 46.4 °F 42.9 °F 46.4 °F 100% 29.62 in 10.0 mi SSE 6.9 mph - N/A   Overcast
7:55 AM 48.2 °F - 46.4 °F 93% 29.62 in 10.0 mi SSE 6.9 mph - N/A   Overcast
8:15 AM 48.2 °F - 48.2 °F 100% 29.62 in 10.0 mi SSE 6.9 mph - N/A   Overcast
8:35 AM 48.2 °F - 48.2 °F 100% 29.62 in 7.0 mi South 8.1 mph - 0.04 in   Overcast
8:55 AM 48.2 °F - 48.2 °F 100% 29.62 in 10.0 mi South 11.5 mph - 0.08 in   Overcast
9:15 AM 48.2 °F - 46.4 °F 93% 29.62 in 10.0 mi South 10.4 mph - 0.01 in   Overcast
9:35 AM 48.2 °F - 46.4 °F 93% 29.62 in 10.0 mi SSE 9.2 mph - 0.01 in   Overcast
9:55 AM 50.0 °F - 48.2 °F 94% 29.62 in 10.0 mi South 10.4 mph - 0.01 in   Overcast
10:15 AM 50.0 °F - 50.0 °F 100% 29.63 in 10.0 mi SSE 8.1 mph - N/A   Overcast
10:35 AM 50.0 °F - 50.0 °F 100% 29.63 in 8.0 mi South 6.9 mph - N/A   Overcast
10:55 AM 51.8 °F - 51.8 °F 100% 29.63 in 4.0 mi South 9.2 mph - 0.03 in   Overcast
11:15 AM 51.8 °F - 51.8 °F 100% 29.64 in 10.0 mi South 10.4 mph - N/A   Unknown
11:35 AM 53.6 °F - 51.8 °F 94% 29.64 in 10.0 mi SW 8.1 mph - N/A   Overcast
11:55 AM 53.6 °F - 51.8 °F 94% 29.64 in 10.0 mi WSW 13.8 mph 19.6 mph N/A   Overcast
12:15 PM 53.6 °F - 50.0 °F 88% 29.64 in 10.0 mi WSW 11.5 mph - N/A   Mostly Cloudy
12:35 PM 53.6 °F - 50.0 °F 88% 29.64 in 10.0 mi SW 11.5 mph 19.6 mph N/A   Mostly Cloudy
12:55 PM 53.6 °F - 48.2 °F 82% 29.65 in 10.0 mi SW 12.7 mph 20.7 mph N/A   Mostly Cloudy
1:15 PM 55.4 °F - 48.2 °F 77% 29.64 in 10.0 mi SW 13.8 mph 23.0 mph N/A   Mostly Cloudy
1:35 PM 50.0 °F - 46.4 °F 87% 29.66 in 4.0 mi West 15.0 mph 34.5 mph 0.01 in   Overcast
1:55 PM 51.8 °F - 50.0 °F 94% 29.65 in 10.0 mi SW 11.5 mph - 0.02 in   Mostly Cloudy
2:15 PM 53.6 °F - 48.2 °F 82% 29.64 in 6.0 mi SW 17.3 mph 29.9 mph 0.01 in   Mostly Cloudy
2:35 PM 51.8 °F - 48.2 °F 88% 29.65 in 10.0 mi SW 13.8 mph 20.7 mph 0.01 in   Overcast
2:55 PM 51.8 °F - 48.2 °F 88% 29.65 in 10.0 mi WSW 16.1 mph 21.9 mph 0.01 in   Mostly Cloudy
3:15 PM 53.6 °F - 48.2 °F 82% 29.65 in 10.0 mi SW 12.7 mph 20.7 mph N/A   Mostly Cloudy
3:35 PM 53.6 °F - 50.0 °F 88% 29.65 in 10.0 mi WSW 17.3 mph - N/A   Mostly Cloudy
3:55 PM 53.6 °F - 48.2 °F 82% 29.65 in 10.0 mi WSW 20.7 mph 26.5 mph N/A   Mostly Cloudy
4:15 PM 53.6 °F - 48.2 °F 82% 29.66 in 10.0 mi WSW 16.1 mph 21.9 mph N/A   Scattered Clouds
4:35 PM 53.6 °F - 48.2 °F 82% 29.66 in 10.0 mi WSW 12.7 mph 21.9 mph N/A   Mostly Cloudy
4:55 PM 53.6 °F - 48.2 °F 82% 29.66 in 10.0 mi WSW 16.1 mph 24.2 mph N/A   Mostly Cloudy
5:15 PM 53.6 °F - 46.4 °F 77% 29.66 in 10.0 mi SW 13.8 mph 23.0 mph N/A   Mostly Cloudy
5:35 PM 51.8 °F - 46.4 °F 82% 29.67 in 10.0 mi SW 11.5 mph 25.3 mph N/A   Overcast
5:55 PM 50.0 °F - 46.4 °F 87% 29.67 in 8.0 mi WSW 13.8 mph 21.9 mph 0.02 in   Overcast
6:15 PM 48.2 °F - 44.6 °F 87% 29.67 in 10.0 mi SSW 11.5 mph 17.3 mph N/A   Mostly Cloudy
6:35 PM 48.2 °F - 46.4 °F 93% 29.67 in 10.0 mi WSW 11.5 mph - 0.01 in   Mostly Cloudy
6:55 PM 50.0 °F - 46.4 °F 87% 29.67 in 10.0 mi WSW 11.5 mph 16.1 mph 0.03 in   Overcast
7:15 PM 50.0 °F - 46.4 °F 87% 29.67 in 10.0 mi SSW 6.9 mph - N/A   Overcast
7:35 PM 48.2 °F - 48.2 °F 100% 29.67 in 10.0 mi South 9.2 mph - N/A   Overcast
7:55 PM 48.2 °F - 46.4 °F 93% 29.68 in 10.0 mi WSW 15.0 mph 19.6 mph 0.01 in   Overcast
8:15 PM 46.4 °F 43.5 °F 46.4 °F 100% 29.68 in 9.0 mi SSW 5.8 mph 18.4 mph 0.03 in   Overcast
8:35 PM 48.2 °F - 46.4 °F 93% 29.68 in 10.0 mi SSW 10.4 mph - 0.03 in   Overcast
8:55 PM 50.0 °F - 48.2 °F 94% 29.69 in 10.0 mi SSW 10.4 mph - 0.03 in   Overcast
9:15 PM 48.2 °F - 46.4 °F 93% 29.70 in 10.0 mi SSW 11.5 mph 21.9 mph N/A   Overcast
9:35 PM 48.2 °F - 44.6 °F 87% 29.70 in 10.0 mi SSW 8.1 mph - N/A   Mostly Cloudy
9:55 PM 48.2 °F - 46.4 °F 93% 29.70 in 10.0 mi South 10.4 mph 16.1 mph N/A   Overcast
10:15 PM 48.2 °F - 46.4 °F 93% 29.70 in 8.0 mi South 11.5 mph 18.4 mph 0.02 in   Overcast
10:35 PM 48.2 °F - 48.2 °F 100% 29.69 in 9.0 mi South 10.4 mph 16.1 mph 0.05 in   Overcast
10:55 PM 48.2 °F - 48.2 °F 100% 29.69 in 7.0 mi SW 15.0 mph 23.0 mph 0.16 in   Overcast
11:15 PM 48.2 °F - 46.4 °F 93% 29.70 in 10.0 mi SSW 12.7 mph - 0.01 in   Overcast
11:35 PM 48.2 °F - 48.2 °F 100% 29.71 in 10.0 mi SW 6.9 mph - 0.01 in   Overcast
11:55 PM 48.2 °F - 46.4 °F 93% 29.71 in 10.0 mi SSW 13.8 mph 17.3 mph 0.01 in   Overcast